Weather History for Mullan Pass, ID

Change the Weather History Date:

Monday, April 28, 2014

  Actual Average (K3TH) Record (K3TH)
Temperature  
Mean Temperature 28 °F -  
Max Temperature 34 °F 60 °F 82 °F (1998)
Min Temperature 23 °F 38 °F 37 °F (1999)
Degree Days  
Heating Degree Days 37    
Moisture  
Dew Point 25 °F    
Average Humidity 92    
Maximum Humidity 100    
Minimum Humidity 80    
Precipitation  
Precipitation 0.02 in - - ()
Sea Level Pressure  
Sea Level Pressure 30.17 in    
Wind  
Wind Speed 5 mph (NW)    
Max Wind Speed 9 mph    
Max Gust Speed 21 mph    
Visibility 6 miles    
Events Fog , Snow    
Averages and records for this station are not official NWS values.
T = Trace of Precipitation, MM = Missing Value Source: NWS Daily Summary

Daily Weather History Graph

Daily Weather History Graph

Search for Another Location

Airport:

Trip Planner

Search our weather history database for the weather conditions in past years. The results will help you decide how hot, cold, wet, or windy it might be!

Date:

Astronomy

Apr. 28, 2014 Rise Set
Actual Time 5:30 AM PDT 7:50 PM PDT
Civil Twilight 4:56 AM PDT 8:24 PM PDT
Nautical Twilight 4:14 AM PDT 9:06 PM PDT
Astronomical Twilight 3:26 AM PDT 9:55 PM PDT
Moon 5:15 AM PDT (4/28) 7:31 PM PDT (4/28)
Length of Visible Light 15h 27m
Length of Day
14h 19m
Waning Crescent, 0% of the Moon is Illuminated
Apr 28
Waning Crescent
Apr 28
New
May 6
First Quarter
May 14
Full
May 21
Last Quarter

Hourly Weather History & Observations

Time (PDT) Temp. Windchill Dew Point Humidity Pressure Visibility Wind Dir Wind Speed Gust Speed Precip Events Conditions
12:10 AM 24.8 °F 17.9 °F 24.8 °F 100% 29.88 in 3.0 mi Variable 5.8 mph - 0.00 in   Overcast
12:39 AM 24.8 °F 17.9 °F 24.8 °F 100% 29.88 in 10.0 mi Variable 5.8 mph - 0.00 in   Overcast
1:21 AM 24.8 °F 16.9 °F 23.0 °F 93% 29.89 in 10.0 mi Variable 6.9 mph - 0.00 in   Overcast
1:53 AM 24.1 °F 16.0 °F 23.0 °F 96% 30.00 in 10.0 mi Variable 6.9 mph - 0.00 in   Overcast
2:53 AM 24.1 °F 14.4 °F 21.9 °F 91% 30.02 in 10.0 mi West 9.2 mph - N/A   Overcast
3:18 AM 24.8 °F 17.9 °F 21.2 °F 86% 29.93 in 10.0 mi Variable 5.8 mph - N/A   Overcast
3:53 AM 23.0 °F 14.7 °F 21.9 °F 96% 30.06 in 10.0 mi Variable 6.9 mph - N/A   Overcast
4:31 AM 23.0 °F 18.4 °F 23.0 °F 100% 29.97 in 5.0 mi Variable 3.5 mph - N/A   Overcast
4:50 AM 23.0 °F 17.0 °F 23.0 °F 100% 29.97 in 1.8 mi SW 4.6 mph - N/A   Overcast
4:53 AM 23.0 °F 17.0 °F 23.0 °F 100% 30.10 in 1.2 mi Variable 4.6 mph - N/A   Overcast
5:11 AM 23.0 °F 17.0 °F 21.2 °F 93% 29.99 in 2.0 mi Variable 4.6 mph - N/A   Overcast
5:27 AM 23.0 °F 14.7 °F 21.2 °F 93% 29.99 in 1.5 mi WSW 6.9 mph - N/A   Overcast
5:36 AM 23.0 °F 14.7 °F 21.2 °F 93% 30.00 in 1.0 mi Variable 6.9 mph - 0.00 in Snow Light Snow
5:43 AM 23.0 °F 15.8 °F 21.2 °F 93% 30.00 in 0.2 mi Variable 5.8 mph - 0.00 in Fog , Snow Light Snow
5:53 AM 23.0 °F 18.4 °F 21.9 °F 96% 30.12 in 0.5 mi Variable 3.5 mph - 0.00 in Fog Light Freezing Fog
6:14 AM 23.0 °F 17.0 °F 21.2 °F 93% 30.01 in 0.2 mi Variable 4.6 mph - 0.00 in Fog , Snow Light Snow
6:41 AM 23.0 °F 17.0 °F 21.2 °F 93% 30.02 in 0.5 mi West 4.6 mph - 0.00 in Fog , Snow Light Snow
7:03 AM 23.0 °F 14.7 °F 21.2 °F 93% 30.03 in 0.5 mi Variable 6.9 mph - 0.00 in Fog Light Freezing Fog
7:51 AM 23.0 °F 17.0 °F 21.2 °F 93% 30.05 in 1.5 mi Variable 4.6 mph - 0.00 in Snow Light Snow
7:53 AM 23.0 °F 17.0 °F 21.9 °F 96% 30.18 in 1.5 mi Variable 4.6 mph - 0.00 in Snow Light Snow
8:07 AM 23.0 °F 15.8 °F 21.2 °F 93% 30.06 in 1.2 mi Variable 5.8 mph - 0.01 in Snow Light Snow
8:14 AM 23.0 °F 17.0 °F 21.2 °F 93% 30.06 in 2.0 mi Variable 4.6 mph - 0.01 in Snow Light Snow
8:37 AM 24.8 °F 19.1 °F 23.0 °F 93% 30.07 in 1.2 mi Variable 4.6 mph - 0.01 in Snow Light Snow
8:44 AM 24.8 °F 20.5 °F 21.2 °F 86% 30.08 in 2.0 mi Variable 3.5 mph - 0.01 in Snow Light Snow
8:53 AM 24.1 °F - 23.0 °F 96% 30.21 in 1.5 mi Calm Calm - 0.01 in Snow Light Snow
8:58 AM 24.8 °F - 23.0 °F 93% 30.09 in 0.8 mi Calm Calm - 0.00 in Snow Light Snow
9:20 AM 24.8 °F - 23.0 °F 93% 30.10 in 0.2 mi Calm Calm - 0.00 in Fog , Snow Light Snow
9:29 AM 24.8 °F 19.1 °F 23.0 °F 93% 30.10 in 0.8 mi Variable 4.6 mph - 0.00 in Snow Light Snow
9:31 AM 24.8 °F 20.5 °F 23.0 °F 93% 30.10 in 1.5 mi Variable 3.5 mph - 0.00 in   Overcast
9:44 AM 24.8 °F - 24.8 °F 100% 30.11 in 4.0 mi Calm Calm - 0.00 in   Overcast
9:53 AM 25.0 °F - 24.1 °F 96% 30.24 in 10.0 mi Calm Calm - 0.00 in   Overcast
10:53 AM 27.0 °F 23.0 °F 25.0 °F 92% 30.25 in 10.0 mi Variable 3.5 mph - 0.00 in   Overcast
11:53 AM 27.0 °F - 26.1 °F 96% 30.28 in 9.0 mi Calm Calm - 0.00 in   Overcast
12:53 PM 28.9 °F 23.9 °F 28.0 °F 96% 30.29 in 6.0 mi Variable 4.6 mph - 0.00 in Snow Light Snow
1:00 PM 28.4 °F 24.6 °F 26.6 °F 93% 30.18 in 8.0 mi Variable 3.5 mph - 0.00 in Snow Light Snow
1:32 PM 30.2 °F 25.4 °F 28.4 °F 93% 30.19 in 10.0 mi Variable 4.6 mph - 0.00 in   Overcast
1:53 PM 30.9 °F 26.2 °F 28.0 °F 89% 30.30 in 9.0 mi Variable 4.6 mph - 0.00 in   Overcast
2:03 PM 30.2 °F 24.3 °F 28.4 °F 93% 30.20 in 1.8 mi Variable 5.8 mph - 0.00 in Snow Light Snow
2:07 PM 30.2 °F 22.6 °F 28.4 °F 93% 30.20 in 1.2 mi NNW 8.1 mph - 0.00 in Snow Light Snow
2:11 PM 30.2 °F 24.3 °F 28.4 °F 93% 30.20 in 1.5 mi NNW 5.8 mph - 0.00 in Snow Light Snow
2:14 PM 30.2 °F 22.6 °F 28.4 °F 93% 30.20 in 3.0 mi NW 8.1 mph - 0.00 in Snow Light Snow
2:30 PM 32.0 °F 26.4 °F 28.4 °F 87% 30.21 in 10.0 mi Variable 5.8 mph - 0.00 in   Mostly Cloudy
2:42 PM 32.0 °F 25.6 °F 28.4 °F 87% 30.21 in 10.0 mi NW 6.9 mph - 0.00 in   Mostly Cloudy
2:53 PM 32.0 °F 28.7 °F 27.0 °F 82% 30.32 in 10.0 mi Variable 3.5 mph 20.7 mph 0.00 in   Mostly Cloudy
3:22 PM 30.2 °F 25.4 °F 28.4 °F 93% 30.23 in 2.5 mi NNW 4.6 mph - 0.00 in Snow Light Snow
3:30 PM 33.8 °F 28.6 °F 28.4 °F 81% 30.23 in 9.0 mi Variable 5.8 mph - 0.00 in   Mostly Cloudy
3:53 PM 33.1 °F 28.7 °F 28.9 °F 85% 30.35 in 10.0 mi NNW 4.6 mph - 0.00 in   Mostly Cloudy
4:21 PM 32.0 °F 27.5 °F 26.6 °F 80% 30.25 in 10.0 mi Variable 4.6 mph - N/A   Mostly Cloudy
4:28 PM 30.2 °F 23.4 °F 26.6 °F 86% 30.25 in 7.0 mi Variable 6.9 mph - 0.01 in Snow Light Snow
4:53 PM 30.9 °F 26.2 °F 28.0 °F 89% 30.38 in 10.0 mi NNW 4.6 mph - 0.01 in   Mostly Cloudy
5:08 PM 30.2 °F - 28.4 °F 93% 30.27 in 10.0 mi Calm Calm - 0.00 in   Mostly Cloudy
5:53 PM 30.9 °F - 27.0 °F 85% 30.40 in 10.0 mi Calm Calm - 0.00 in   Overcast
6:53 PM 30.0 °F - 26.1 °F 85% 30.42 in 10.0 mi Calm Calm - N/A   Mostly Cloudy
7:09 PM 28.4 °F 24.6 °F 24.8 °F 86% 30.31 in 10.0 mi Variable 3.5 mph - N/A   Scattered Clouds
7:53 PM 28.0 °F 22.8 °F 25.0 °F 88% 30.45 in 10.0 mi Variable 4.6 mph - N/A   Scattered Clouds
8:53 PM 27.0 °F 20.5 °F 25.0 °F 92% 30.48 in 10.0 mi NW 5.8 mph - N/A   Clear
9:53 PM 27.0 °F 20.5 °F 25.0 °F 92% 30.50 in 10.0 mi NW 5.8 mph - N/A   Clear
10:53 PM 26.1 °F 21.9 °F 23.0 °F 88% 30.51 in 10.0 mi Variable 3.5 mph - N/A   Clear
11:53 PM 26.1 °F 19.4 °F 23.0 °F 88% 30.52 in 10.0 mi NNW 5.8 mph - N/A   Clear